Weather Roundup
Issued by NWS Chicago, IL

Home | Current Version | Previous Version | Graphics & Text | Print | Product List | Glossary On
Versions: 1 2 3 4 5 6 7 8 9 10 11 12 13 14 15 16 17 18 19 20 21 22 23 24 25 26 27 28 29 30 31 32 33 34 35 36 37 38 39 40 41 42 43 44 45 46 47 48 49 50
000
NZUS59 KLOT 090808
HRRLOT

CHICAGO AREA WEATHER ROUNDUP
NATIONAL WEATHER SERVICE CHICAGO/ROMEOVILLE IL
200 AM CST FRI DEC 09 2016

NOTE: "FAIR" INDICATES FEW OR NO CLOUDS BELOW 12,000 FEET WITH NO
SIGNIFICANT WEATHER AND/OR OBSTRUCTIONS TO VISIBILITY.

* THESE STATIONS ARE NOT UNDER NWS QUALITY CONTROL. THEY ALSO MAY NOT
  REPORT WEATHER SUCH AS PRECIPITATION OR FOG.

ILZ005-006-012>014-019>023-090900-
NORTHEAST ILLINOIS

CITY           SKY/WX    TMP DP  RH WIND       PRES   REMARKS
OHARE          CLEAR     21  15  78 W12       30.43R WCI   9
MIDWAY         PTCLDY    22  15  75 W13       30.44R WCI  10
AURORA         PTCLDY    20  14  77 W9        30.46R WCI   9
LANSING*       MOCLDY    21  18  87 W7        30.45R WCI  12
JOLIET*        CLOUDY    23  18  81 W6        30.47R WCI  15
WAUKEGAN       CLEAR     20  16  84 W7        30.40R WCI  11
DUPAGE AIRPORT CLEAR     19  14  81 W9        30.43R WCI   8
WHEELING       CLEAR     21  15  78 W9        30.44R WCI  11
KANKAKEE*      CLOUDY    22  17  78 W12       30.47S WCI  11
MORRIS*        CLOUDY    22  17  81 W12       30.47R WCI  11
LEWIS AIRPORT* MIX PCPN  21  19  90 W12       30.46R WCI   9
NORTHERLY ISL    N/A     23  18  81 W13         N/A  WCI  11
$$

WIZ051-052-058>065-066-070>072-090900-
SOUTHEAST WISCONSIN

CITY           SKY/WX    TMP DP  RH WIND       PRES   REMARKS
MILWAUKEE      PTCLDY    24  15  68 W10       30.40R WCI  14
KENOSHA*       CLEAR     21  16  81 NW10      30.40R WCI  10
RACINE*        MOCLDY    22  15  75 W7        30.42R WCI  13
BURLINGTON     MOCLDY    26  23  88 W6        30.41R WCI  19
WAUKESHA       CLEAR     19  16  86 W12       30.40R WCI   7
WEST BEND      CLEAR     21  18  86 W9        30.38R WCI  11
$$

INZ001>003-010>013-019-020-090900-
NORTHWEST INDIANA

CITY           SKY/WX    TMP DP  RH WIND       PRES   REMARKS
GARY*          CLOUDY    24  19  80 W10       30.45R WCI  14
MICHIGAN CITY* NOT AVBL
RENSSELAER*    NOT AVBL
VALPARAISO     CLOUDY    23  16  74 MISG      30.43R
$$

LMZ740>746-090900-
SOUTHERN LAKE MICHIGAN

STATION/POSITION TIME  SKY/WX   TEMP WIND        PRES    VSBY
                                AIR  DIR/SP/G
                 (UTC)          (F)  (DEG/KT/KT) (MB)    (MI)
HARRISON CRIB    0740            24  290/ 19/ 21   N/A
BURNHAM HARBOR   0800            23  280/ 13/ 17   N/A
CALUMET HARBOR   0742            22  240/  6/ 11 1029.8R
BURNS HARBOR     0740            27  270/ 17/ 22 1030.1R
MICHIGAN CITY    NOT AVBL
$$

ABBREVIATIONS USED IN REMARKS
   TC - TEMPERATURE IN CELSIUS
  WCI - WIND CHILL INDEX
   HX - HEAT INDEX
  VSB - VISIBILITY
$$




USA.gov is the U.S. government's official web portal to all federal, state and local government web resources and services.